Time,TemperatureF,DewpointF,PressureIn,WindDirection,WindDirectionDegrees,WindSpeedMPH,WindSpeedGustMPH,Humidity,HourlyPrecipIn,Conditions,Clouds,dailyrainin,SolarRadiationWatts/m^2,SoftwareType,DateUTC
2013-09-23 00:03:00,63.0,55.0,-100.00,SE,144,12.0,18.0,74,0.00,,,0.00,0.000000,,2013-09-23 05:03:00,
2013-09-23 00:11:00,62.0,53.0,-100.00,SSE,153,13.0,20.0,73,0.00,,,0.00,0.000000,,2013-09-23 05:11:00,
2013-09-23 00:43:00,62.0,53.0,-100.00,SSE,153,13.0,20.0,73,0.00,,,0.00,0.000000,,2013-09-23 05:43:00,
2013-09-23 00:53:00,62.0,53.0,-100.00,SSE,153,13.0,20.0,73,0.00,,,0.00,0.000000,,2013-09-23 05:53:00,
2013-09-23 01:02:00,62.0,53.0,-100.00,SSE,153,13.0,20.0,73,0.00,,,0.00,0.000000,,2013-09-23 06:02:00,
2013-09-23 01:11:00,62.0,53.0,-100.00,SSE,156,14.0,21.0,72,0.00,,,0.00,0.000000,,2013-09-23 06:11:00,
2013-09-23 01:42:00,62.0,53.0,-100.00,SSE,156,14.0,21.0,72,0.00,,,0.00,0.000000,,2013-09-23 06:42:00,
2013-09-23 01:52:00,62.0,53.0,-100.00,SSE,156,14.0,21.0,72,0.00,,,0.00,0.000000,,2013-09-23 06:52:00,
2013-09-23 02:01:00,62.0,53.0,-100.00,SSE,156,14.0,21.0,72,0.00,,,0.00,0.000000,,2013-09-23 07:01:00,
2013-09-23 02:11:00,60.0,52.0,-100.00,SSE,151,13.0,21.0,75,0.00,,,0.00,0.000000,,2013-09-23 07:11:00,
2013-09-23 02:42:00,60.0,52.0,-100.00,SSE,151,13.0,21.0,75,0.00,,,0.00,0.000000,,2013-09-23 07:42:00,
2013-09-23 02:52:00,60.0,52.0,-100.00,SSE,151,13.0,21.0,75,0.00,,,0.00,0.000000,,2013-09-23 07:52:00,
2013-09-23 03:02:00,60.0,52.0,-100.00,SSE,151,13.0,21.0,75,0.00,,,0.00,0.000000,,2013-09-23 08:02:00,
2013-09-23 03:11:00,58.0,52.0,-100.00,SSE,149,11.0,19.0,80,0.00,,,0.00,0.000000,,2013-09-23 08:11:00,
2013-09-23 03:42:00,58.0,52.0,-100.00,SSE,149,11.0,19.0,80,0.00,,,0.00,0.000000,,2013-09-23 08:42:00,
2013-09-23 03:52:00,58.0,52.0,-100.00,SSE,149,11.0,19.0,80,0.00,,,0.00,0.000000,,2013-09-23 08:52:00,
2013-09-23 04:02:00,58.0,52.0,-100.00,SSE,149,11.0,19.0,80,0.00,,,0.00,0.000000,,2013-09-23 09:02:00,
2013-09-23 04:11:00,57.0,51.0,-100.00,SE,144,11.0,17.0,81,0.00,,,0.00,0.000000,,2013-09-23 09:11:00,
2013-09-23 04:43:00,57.0,51.0,-100.00,SE,144,11.0,17.0,81,0.00,,,0.00,0.000000,,2013-09-23 09:43:00,
2013-09-23 04:53:00,57.0,51.0,-100.00,SE,144,11.0,17.0,81,0.00,,,0.00,0.000000,,2013-09-23 09:53:00,
2013-09-23 05:03:00,57.0,51.0,-100.00,SE,144,11.0,17.0,81,0.00,,,0.00,0.000000,,2013-09-23 10:03:00,
2013-09-23 05:11:00,56.0,51.0,-100.00,SE,146,11.0,19.0,82,0.00,,,0.00,0.000000,,2013-09-23 10:11:00,
2013-09-23 05:43:00,56.0,51.0,-100.00,SE,146,11.0,19.0,82,0.00,,,0.00,0.000000,,2013-09-23 10:43:00,
2013-09-23 05:53:00,56.0,51.0,-100.00,SE,146,11.0,19.0,82,0.00,,,0.00,0.000000,,2013-09-23 10:53:00,
2013-09-23 06:02:00,56.0,51.0,-100.00,SE,146,11.0,19.0,82,0.00,,,0.00,0.000000,,2013-09-23 11:02:00,
2013-09-23 06:11:00,55.0,50.0,-100.00,SE,144,11.0,18.0,83,0.00,,,0.00,0.000000,,2013-09-23 11:11:00,
2013-09-23 06:42:00,55.0,50.0,-100.00,SE,144,11.0,18.0,83,0.00,,,0.00,0.000000,,2013-09-23 11:42:00,
2013-09-23 06:52:00,55.0,50.0,-100.00,SE,144,11.0,18.0,83,0.00,,,0.00,0.000000,,2013-09-23 11:52:00,
2013-09-23 07:01:00,55.0,50.0,-100.00,SE,144,11.0,18.0,83,0.00,,,0.00,0.000000,,2013-09-23 12:01:00,
2013-09-23 07:11:00,54.0,50.0,-100.00,SE,133,9.0,16.0,86,0.00,,,0.00,3.000000,,2013-09-23 12:11:00,
2013-09-23 07:42:00,54.0,50.0,-100.00,SE,133,9.0,16.0,86,0.00,,,0.00,3.000000,,2013-09-23 12:42:00,
2013-09-23 07:52:00,54.0,50.0,-100.00,SE,133,9.0,16.0,86,0.00,,,0.00,3.000000,,2013-09-23 12:52:00,
2013-09-23 08:02:00,54.0,50.0,-100.00,SE,133,9.0,16.0,86,0.00,,,0.00,3.000000,,2013-09-23 13:02:00,
2013-09-23 08:11:00,56.0,50.0,-100.00,SE,143,12.0,21.0,79,0.00,,,0.00,121.000000,,2013-09-23 13:11:00,
2013-09-23 08:42:00,56.0,50.0,-100.00,SE,143,12.0,21.0,79,0.00,,,0.00,121.000000,,2013-09-23 13:42:00,
2013-09-23 08:52:00,56.0,50.0,-100.00,SE,143,12.0,21.0,79,0.00,,,0.00,121.000000,,2013-09-23 13:52:00,
2013-09-23 09:01:00,56.0,50.0,-100.00,SE,143,12.0,21.0,79,0.00,,,0.00,121.000000,,2013-09-23 14:01:00,
2013-09-23 09:11:00,60.0,51.0,-100.00,SE,146,13.0,20.0,71,0.00,,,0.00,351.000000,,2013-09-23 14:11:00,
2013-09-23 09:43:00,60.0,51.0,-100.00,SE,146,13.0,20.0,71,0.00,,,0.00,351.000000,,2013-09-23 14:43:00,
2013-09-23 09:52:00,60.0,51.0,-100.00,SE,146,13.0,20.0,71,0.00,,,0.00,351.000000,,2013-09-23 14:52:00,
2013-09-23 10:02:00,60.0,51.0,-100.00,SE,146,13.0,20.0,71,0.00,,,0.00,351.000000,,2013-09-23 15:02:00,
2013-09-23 10:11:00,64.0,52.0,-100.00,SSE,157,14.0,22.0,65,0.00,,,0.00,500.000000,,2013-09-23 15:11:00,
2013-09-23 10:43:00,64.0,52.0,-100.00,SSE,157,14.0,22.0,65,0.00,,,0.00,500.000000,,2013-09-23 15:43:00,
2013-09-23 10:54:00,64.0,52.0,-100.00,SSE,157,14.0,22.0,65,0.00,,,0.00,500.000000,,2013-09-23 15:54:00,
2013-09-23 11:04:00,64.0,52.0,-100.00,SSE,157,14.0,22.0,65,0.00,,,0.00,500.000000,,2013-09-23 16:04:00,
2013-09-23 11:11:00,66.0,53.0,-100.00,SE,146,17.0,26.0,62,0.00,,,0.00,623.000000,,2013-09-23 16:11:00,
2013-09-23 11:43:00,66.0,53.0,-100.00,SE,146,17.0,26.0,62,0.00,,,0.00,623.000000,,2013-09-23 16:43:00,
2013-09-23 11:53:00,66.0,53.0,-100.00,SE,146,17.0,26.0,62,0.00,,,0.00,623.000000,,2013-09-23 16:53:00,
2013-09-23 12:03:00,66.0,53.0,-100.00,SE,146,17.0,26.0,62,0.00,,,0.00,623.000000,,2013-09-23 17:03:00,
2013-09-23 12:11:00,69.0,52.0,-100.00,SSE,157,18.0,29.0,54,0.00,,,0.00,731.000000,,2013-09-23 17:11:00,
2013-09-23 12:42:00,69.0,52.0,-100.00,SSE,157,18.0,29.0,54,0.00,,,0.00,731.000000,,2013-09-23 17:42:00,
2013-09-23 12:52:00,69.0,52.0,-100.00,SSE,157,18.0,29.0,54,0.00,,,0.00,731.000000,,2013-09-23 17:52:00,
2013-09-23 13:02:00,69.0,52.0,-100.00,SSE,157,18.0,29.0,54,0.00,,,0.00,731.000000,,2013-09-23 18:02:00,
2013-09-23 13:11:00,70.0,52.0,-100.00,SSE,154,17.0,27.0,52,0.00,,,0.00,776.000000,,2013-09-23 18:11:00,
2013-09-23 13:42:00,70.0,52.0,-100.00,SSE,154,17.0,27.0,52,0.00,,,0.00,776.000000,,2013-09-23 18:42:00,
2013-09-23 13:52:00,70.0,52.0,-100.00,SSE,154,17.0,27.0,52,0.00,,,0.00,776.000000,,2013-09-23 18:52:00,
2013-09-23 14:02:00,70.0,52.0,-100.00,SSE,154,17.0,27.0,52,0.00,,,0.00,776.000000,,2013-09-23 19:02:00,
2013-09-23 14:11:00,73.0,52.0,-100.00,SSE,151,18.0,29.0,48,0.00,,,0.00,802.000000,,2013-09-23 19:11:00,
2013-09-23 14:42:00,73.0,52.0,-100.00,SSE,151,18.0,29.0,48,0.00,,,0.00,802.000000,,2013-09-23 19:42:00,
2013-09-23 14:53:00,73.0,52.0,-100.00,SSE,151,18.0,29.0,48,0.00,,,0.00,802.000000,,2013-09-23 19:53:00,
2013-09-23 15:02:00,73.0,52.0,-100.00,SSE,151,18.0,29.0,48,0.00,,,0.00,802.000000,,2013-09-23 20:02:00,
2013-09-23 15:11:00,73.0,52.0,-100.00,SE,139,15.0,27.0,48,0.00,,,0.00,687.000000,,2013-09-23 20:11:00,
2013-09-23 15:42:00,73.0,52.0,-100.00,SE,139,15.0,27.0,48,0.00,,,0.00,687.000000,,2013-09-23 20:42:00,
2013-09-23 15:52:00,73.0,52.0,-100.00,SE,139,15.0,27.0,48,0.00,,,0.00,687.000000,,2013-09-23 20:52:00,
2013-09-23 16:02:00,73.0,52.0,-100.00,SE,139,15.0,27.0,48,0.00,,,0.00,687.000000,,2013-09-23 21:02:00,
2013-09-23 16:11:00,74.0,51.0,-100.00,SE,142,14.0,25.0,45,0.00,,,0.00,529.000000,,2013-09-23 21:11:00,
2013-09-23 16:44:00,74.0,51.0,-100.00,SE,142,14.0,25.0,45,0.00,,,0.00,529.000000,,2013-09-23 21:44:00,
2013-09-23 16:54:00,74.0,51.0,-100.00,SE,142,14.0,25.0,45,0.00,,,0.00,529.000000,,2013-09-23 21:54:00,
2013-09-23 17:04:00,74.0,51.0,-100.00,SE,142,14.0,25.0,45,0.00,,,0.00,529.000000,,2013-09-23 22:04:00,
2013-09-23 17:11:00,73.0,50.0,-100.00,SE,135,15.0,26.0,45,0.00,,,0.00,384.000000,,2013-09-23 22:11:00,
2013-09-23 17:43:00,73.0,50.0,-100.00,SE,135,15.0,26.0,45,0.00,,,0.00,384.000000,,2013-09-23 22:43:00,
2013-09-23 17:54:00,73.0,50.0,-100.00,SE,135,15.0,26.0,45,0.00,,,0.00,384.000000,,2013-09-23 22:54:00,
2013-09-23 18:02:00,73.0,50.0,-100.00,SE,135,15.0,26.0,45,0.00,,,0.00,384.000000,,2013-09-23 23:02:00,
2013-09-23 18:11:00,71.0,51.0,-100.00,SE,135,13.0,22.0,50,0.00,,,0.00,190.000000,,2013-09-23 23:11:00,
2013-09-23 18:42:00,71.0,51.0,-100.00,SE,135,13.0,22.0,50,0.00,,,0.00,190.000000,,2013-09-23 23:42:00,
2013-09-23 18:54:00,71.0,51.0,-100.00,SE,135,13.0,22.0,50,0.00,,,0.00,190.000000,,2013-09-23 23:54:00,
2013-09-23 19:01:00,71.0,51.0,-100.00,SE,135,13.0,22.0,50,0.00,,,0.00,190.000000,,2013-09-24 00:01:00,
2013-09-23 19:11:00,66.0,51.0,-100.00,SE,127,9.0,19.0,58,0.00,,,0.00,32.000000,,2013-09-24 00:11:00,
2013-09-23 19:43:00,66.0,51.0,-100.00,SE,127,9.0,19.0,58,0.00,,,0.00,32.000000,,2013-09-24 00:43:00,
2013-09-23 19:52:00,66.0,51.0,-100.00,SE,127,9.0,19.0,58,0.00,,,0.00,32.000000,,2013-09-24 00:52:00,
2013-09-23 20:02:00,66.0,51.0,-100.00,SE,127,9.0,19.0,58,0.00,,,0.00,32.000000,,2013-09-24 01:02:00,
2013-09-23 20:11:00,62.0,51.0,-100.00,ESE,117,7.0,12.0,68,0.00,,,0.00,1.000000,,2013-09-24 01:11:00,
2013-09-23 20:43:00,62.0,51.0,-100.00,ESE,117,7.0,12.0,68,0.00,,,0.00,1.000000,,2013-09-24 01:43:00,
2013-09-23 20:52:00,62.0,51.0,-100.00,ESE,117,7.0,12.0,68,0.00,,,0.00,1.000000,,2013-09-24 01:52:00,
2013-09-23 21:02:00,62.0,51.0,-100.00,ESE,117,7.0,12.0,68,0.00,,,0.00,1.000000,,2013-09-24 02:02:00,
2013-09-23 21:11:00,62.0,51.0,-100.00,SE,124,9.0,12.0,68,0.00,,,0.00,0.000000,,2013-09-24 02:11:00,
2013-09-23 21:42:00,62.0,51.0,-100.00,SE,124,9.0,12.0,68,0.00,,,0.00,0.000000,,2013-09-24 02:42:00,
2013-09-23 21:52:00,62.0,51.0,-100.00,SE,124,9.0,12.0,68,0.00,,,0.00,0.000000,,2013-09-24 02:52:00,
2013-09-23 22:03:00,62.0,51.0,-100.00,SE,124,9.0,12.0,68,0.00,,,0.00,0.000000,,2013-09-24 03:03:00,
2013-09-23 22:11:00,61.0,51.0,-100.00,SE,128,11.0,15.0,69,0.00,,,0.00,0.000000,,2013-09-24 03:11:00,
2013-09-23 22:45:00,61.0,51.0,-100.00,SE,128,11.0,15.0,69,0.00,,,0.00,0.000000,,2013-09-24 03:45:00,
2013-09-23 22:55:00,61.0,51.0,-100.00,SE,128,11.0,15.0,69,0.00,,,0.00,0.000000,,2013-09-24 03:55:00,
2013-09-23 23:04:00,61.0,51.0,-100.00,SE,128,11.0,15.0,69,0.00,,,0.00,0.000000,,2013-09-24 04:04:00,
2013-09-23 23:11:00,60.0,51.0,-100.00,SE,126,9.0,20.0,71,0.00,,,0.00,0.000000,,2013-09-24 04:11:00,
2013-09-23 23:44:00,60.0,51.0,-100.00,SE,126,9.0,20.0,71,0.00,,,0.00,0.000000,,2013-09-24 04:44:00,
2013-09-23 23:54:00,60.0,51.0,-100.00,SE,126,9.0,20.0,71,0.00,,,0.00,0.000000,,2013-09-24 04:54:00,